Regional Weather Roundup
Issued by NWS Charleston, SC

Current Version | Previous Version | Text Only | Print | Product List | Glossary Off
Versions: 1 2 3 4 5 6 7 8 9 10 11 12 13 14 15 16 17 18 19 20 21 22 23 24 25 26 27 28 29 30 31 32 33 34 35 36 37 38 39 40 41 42 43 44 45 46 47 48 49 50

000
ASUS42 KCHS 221410
RWRCHS
REGIONAL WEATHER ROUNDUP
NATIONAL WEATHER SERVICE CHARLESTON SC
1000 AM EDT TUE JUL 22 2014

NOTE: "FAIR" INDICATES FEW OR NO CLOUDS BELOW 12,000 FEET WITH NO
SIGNIFICANT WEATHER AND/OR OBSTRUCTIONS TO VISIBILITY.

NOT ALL STATIONS ARE QUALITY CONTROLLED BY THE NATIONAL
WEATHER SERVICE. USE DATA WITH CAUTION...ESPECIALLY
DEWPOINT OBSERVATIONS.

SCZ027-030-031-034>040-042>050-221500-
...SOUTH CAROLINA...

CITY           SKY/WX    TMP DP  RH WIND       PRES   REMARKS
N CHARLESTON   PTSUNNY   80  75  84 N5        30.10S THUNDER
WATERFRONT PRK   N/A     77 N/A N/A NW5         N/A
FORT JOHNSON   NOT AVBL
MOUNT PLEASANT FAIR      81  77  89 CALM      30.11R
JOHNS ISLAND   SUNNY     81  64  57 CALM      30.11R
PINOPOLIS        N/A     81  75  83 NE2       30.05S
MONCKS CORNER    N/A     81  79  94 CALM      30.11S
SUMMERVILLE    FAIR      81  77  89 NE3       30.12S
BEAUFORT MCAS  PTSUNNY   79  75  87 N5        30.10F
BEAUFORT ARPT  FAIR      79  79 100 NW7       30.09F
HILTON HEAD IS PTSUNNY   79  79 100 CALM      30.11S
GEORGETOWN     NOT AVBL
WALTERBORO     CLOUDY    81 N/A N/A E3        30.12S
ORANGEBURG     CLOUDY    79  74  84 E5        30.12F
BARNWELL       CLOUDY    77  75  94 NE3       30.13S
AIKEN          PTSUNNY   77  77 100 E7        30.17S
MANNING        CLOUDY    79 N/A N/A MISG      30.12S
KINGSTREE      NOT AVBL
COLUMBIA       CLOUDY    77  73  87 N6        30.13F FOG
SUMTER         CLOUDY    74  74 100 NE6       30.13R FOG
FLORENCE       FOG       74  73  97 NE5       30.13S VSB 1
MYRTLE BEACH   PTSUNNY   79  73  83 N7        30.12R
N MYRTLE BEACH PTSUNNY   80  75  84 N6        30.12R

$$

GAZ063-065-086>088-099>101-113>116-118-119-134-136>141-150-221500-
...GEORGIA...

CITY           SKY/WX    TMP DP  RH WIND       PRES   REMARKS
SAVANNAH ARPT  PTSUNNY   79  72  79 NW8       30.11S
HUNTER AAF     PTSUNNY   81  73  78 N6        30.09S
FORT STEWART   CLOUDY    80  72  76 N5        30.10S
STATESBORO     NOT AVBL
SYLVANIA       PTSUNNY   78  76  93 CALM      30.13S
CLAXTON        PTSUNNY   81  75  83 CALM      30.11F
THOMSON        CLOUDY    76  76 100 CALM      30.19S
AUGUSTA-BUSH   CLOUDY    77  73  87 CALM      30.12S
AUGUSTA-DANIEL CLOUDY    77  73  87 E3        30.14S
SWAINSBORO     CLOUDY    79  79 100 CALM      30.14S
VIDALIA          N/A     77  73  88 CALM      30.12S
ALMA           MOSUNNY   78  71  79 VRB3      30.11S
WAYCROSS       PTSUNNY   82  75  81 N5        30.11S
JESUP          NOT AVBL
BRUNSWICK      MOSUNNY   79  73  83 CALM      30.11S
SAINT SIMONS   SUNNY     80  72  76 N7        30.10S

$$

SCZ027-028-034-036>038-045-046-048>050-GAZ119-141-221500-
...LAKE AND SUPPLEMENTAL COASTAL OBSERVATIONS...

STATION/POSITION TIME  TEMP    WIND        PRES    WAVE   SWELL
                       AIR SEA DIR/SP/G            HT/PER HT/PER/DIR
                 (UTC) (F)     (DEG/KT/KT) (MB)    (FT/S) (FT/S/D)
UPR LAKE MARION  NOT AVBL
WINYAH BAY       1300   77      60/  2     1019.0S
LAKE MURRAY      1300   74     360/  1/  3 1020.3S
ACE BASIN NERRS  1300   76      10/  1     1019.0S
FORT PULASKI     1400   77     300/  6/  7 1019.5S
SAPELO ISLAND    1300   75     350/  5     1020.0R

$$

ANZ835-935-AMZ111-154-330-350-352-354-374-450-454-472-221500-
...C-MAN AND BUOY OBSERVATIONS...

STATION/POSITION TIME  TEMP    WIND        PRES    WAVE   SWELL
                       AIR SEA DIR/SP/G            HT/PER HT/PER/DIR
                 (UTC) (F)     (DEG/KT/KT) (MB)    (FT/S) (FT/S/D)
FOLLY BEACH CMAN 1300   78     300/  5/  7 1019.6R
BUOY 41004       1400   79 82  190/ 14/ 21 1018.7R   3/ 7   2/ 7
BUOY 41008       1400   80 84  330/  6/  8 1019.1S   2/ 8   2/100/ 8
5E ST. MARYS GA  1400      83                N/A     2/ 8
FRYING PAN BUOY  NOT AVBL
BUOY 41025       1400          VRB 12/ 14  1020.5R   3/ 8   2/130/ 8
CAPE LOOKOUT NC  1300   76     130/  6/  6 1020.1F
BUOY 41002       1259   81 82  200/ 12/ 14 1021.7F   4/ 7   3/120/ 7
BUOY 41010       1400   83 83  150/ 12/ 16 1018.8R   4/ 6   3/110/ 6
BUOY 41012       NOT AVBL
ST AUGUSTINE FL  1400   80      10/  7/  8 1019.7R
CAPERS NEARSHORE 1300   80      30/  8/  8   N/A
FRIPP NEARSHORE  NOT AVBL


$$



USA.gov is the U.S. government's official web portal to all federal, state and local government web resources and services.